Retour au catalogue

CZ-4 DEB

ActifSSO
NORAD 20903·DEBRIS·🇨🇳 China

Lancé Sep 3, 1990 depuis Taiyuan Satellite Launch Center

Loading…

Prochains Passages (prochaines 24 heures)

TLE

FraisSource: Space-Track

Époque: Sep 14, 2026, 23:21 UTC

1 20903U 90081BP  26257.97300600  .00000347  00000-0  14747-3 0  9999
2 20903  98.4280 257.4051 0055214 174.3560 214.1180 14.30271604867022

Suivez CZ-4 DEB en temps réel avec AllMySat

Download on the App Store